Location: Memmingen
(47.9830°N, 10.1733°E)
Time: 14:07:52
(UTC+02:00)

ISS - Pass Details

Date: 29 January 2018
Orbit: 402 x 407 km, 51.6° (Epoch: 23 May)

Event Time Altitude Azimuth Distance (km) Brightness Sun altitude
Rises 19:29:13 0° 258° (WSW) 2,313 1.4 -22.5°
Reaches altitude 10° 19:31:18 10° 262° (W) 1,456 0.1 -22.9°
Enters shadow 19:33:41 42° 284° (WNW) 589 -2.6 -23.3°
